Torna al catalogo

STARLINK-32700

AttivoComunicazioniVLEO
NORAD 62311·PAYLOAD·🇺🇸 United States

Lanciato Dec 13, 2024 da Vandenberg Space Force Base

Loading…

Prossimi Passaggi (prossime 24 ore)

TLE

AggiornatoSource: CelesTrak SupGP

Epoca: Sep 14, 2026, 21:35 UTC

1 62311C 24239L   26257.89979167  .00013747  00000+0  40625-3 0  2579
2 62311  53.1606  19.6677 0001244  75.9188 139.8910 15.34375703    11

Traccia STARLINK-32700 in tempo reale con AllMySat

Download on the App Store